Regional Weather Roundup
Issued by NWS Green Bay, WI

Home | Current Version | Previous Version | Graphics & Text | Print | Product List | Glossary Off
Versions: 1 2 3 4 5 6 7 8 9 10 11 12 13 14 15 16 17 18 19 20 21 22 23 24 25 26 27 28 29 30 31 32 33 34 35 36 37 38 39 40 41 42 43 44 45 46 47 48 49 50

000
ASUS43 KGRB 012211
RWRGRB

NORTH-CENTRAL AND NORTHEAST WISCONSIN REGIONAL WEATHER ROUNDUP
NATIONAL WEATHER SERVICE GREEN BAY WI
500 PM CDT SUN MAY 01 2016

WIZ005-009-010>012-018-019-012300-
NORTH CENTRAL WISCONSIN

CITY           SKY/WX    TMP DP  RH WIND       PRES   REMARKS
IRONWOOD         N/A     50  34  53 NE12      30.12S
MANITOWISH WTR CLOUDY    60  33  36 NE10      30.09S
ARBOR VITAE    CLOUDY    59  31  33 NE9       30.08S
EAGLE RIVER    CLOUDY    58  26  29 NE8       30.07F
LAND O LAKES   CLOUDY    57  30  36 NE6       30.10S
RHINELANDER    CLOUDY    60  28  29 E10       30.08S
PHILLIPS       CLOUDY    59  31  34 NE6       30.07S
ANTIGO         CLOUDY    57  33  40 SE10G17   30.07S
TOMAHAWK       CLOUDY    59  28  30 E8        30.07S
MERRILL        CLOUDY    61  31  32 E7        30.06S
$$

WIZ013-073-012300-
NORTHEAST WISCONSIN

CITY           SKY/WX    TMP DP  RH WIND       PRES   REMARKS
IRON MOUNTAIN  PTSUNNY   61  32  33 E10G18    30.07S
MARINETTE      SUNNY     55  34  44 E12       30.10S
OCONTO         SUNNY     55  37  49 NE13      30.09S
$$

WIZ017-030-035>037-045-012300-
CENTRAL WISCONSIN

CITY           SKY/WX    TMP DP  RH WIND       PRES   REMARKS
MEDFORD        CLOUDY    59  30  32 E5        30.05R
WAUSAU         PTSUNNY   63  32  31 E10       30.04R
MOSINEE        PTSUNNY   61  34  36 SE10      30.06S
MARSHFIELD     CLOUDY    60  31  33 SE9       30.05S
WISC RAPIDS    MOSUNNY   60  29  30 E14G21    30.06S
STEVENS POINT  CLOUDY    57  32  37 E14G23    30.06S
WAUPACA        CLOUDY    59  35  40 NE8G16    30.08R
SHAWANO        SUNNY     60  36  40 E13G21    30.08F
CLINTONVILLE   SUNNY     59  34  38 E14       30.07S
WAUTOMA        CLOUDY    57  36  45 E10       30.06R
$$

WIZ038-039-048-051-012300-
FOX VALLEY

CITY           SKY/WX    TMP DP  RH WIND       PRES   REMARKS
NWS GREEN BAY  SUNNY     56  39  53 NE23      30.08S
APPLETON       PTSUNNY   55  34  44 NE17G29   30.05S
OSHKOSH        MOSUNNY   56  38  50 NE15G25   30.05R
FOND DU LAC    PTSUNNY   55  39  54 E18       30.06R
$$

WIZ022-050-052-012300-
EAST CENTRAL WISCONSIN

CITY           SKY/WX    TMP DP  RH WIND       PRES   REMARKS
EPHRAIM        FAIR      54  37  51 E9        30.10S
STURGEON BAY   SUNNY     54  37  54 NE10G20   30.12S
MANITOWOC      CLOUDY    50  39  66 MISG      30.08R
SHEBOYGAN      CLOUDY    48  39  71 NE15      30.07R
$$

LMZ563-521-522-541>543-012300-
LAKESHORE

STATION/POSITION TIME  TEMP    WIND        PRES    VSBY  WAVE
                       AIR SEA DIR/SP/G                  HT/PER
                 (UTC) (F)     (DEG/KT/KT) (MB)    (MI)  (FT/S)
SHEBOYGAN LKSHOR 2200   43      20/ 16/ 18 1018.9R
KEWAUNEE LKSHORE 2100   47      30/ 11/ 15 1018.1S
NORTHPORT PIER   2100   47      90/  2/  5 1019.6F
N MID LAKE BUOY  2150   43 39   30/  6/  6 1019.4F         1
CHAMBERS ISLAND  2100   51      30/ 10/ 12 1019.6
MENOMINEE LKSHOR 2100   47      20/  8/  9 1018.4F
$$




USA.gov is the U.S. government's official web portal to all federal, state and local government web resources and services.